This is the latest recevied weather packets stored in our database for station/object CE3TL-WX. If no packets are shown the sender has not sent any weather packets the latest 10 day(s).
| Time | Temp. | Humidity | Pressure | Rain* | Wind** | Luminosity | Snow |
|---|---|---|---|---|---|---|---|
| 1778206515 | 11.67° C | 76% | 1031.1 hPa | - | - | - | - |
| 1778205981 | 11.67° C | 75% | 1031.1 hPa | - | - | - | - |
| 1778205447 | 11.67° C | 73% | 1030.9 hPa | - | - | - | - |
| 1778204913 | 11.67° C | 73% | 1031.1 hPa | - | - | - | - |
| 1778204379 | 11.67° C | 73% | 1031.1 hPa | - | - | - | - |
| 1778203845 | 11.67° C | 72% | 1030.9 hPa | - | - | - | - |
| 1778203310 | 11.67° C | 73% | 1030.9 hPa | - | - | - | - |
| 1778202776 | 11.67° C | 73% | 1031 hPa | - | - | - | - |
| 1778202241 | 11.67° C | 71% | 1031.1 hPa | - | - | - | - |
| 1778201708 | 11.67° C | 70% | 1031 hPa | - | - | - | - |
| 1778201174 | 11.67° C | 70% | 1031.1 hPa | - | - | - | - |
| 1778200640 | 11.67° C | 70% | 1030.9 hPa | - | - | - | - |
| 1778200105 | 11.67° C | 69% | 1030.8 hPa | - | - | - | - |
| 1778199571 | 11.67° C | 68% | 1030.8 hPa | - | - | - | - |
| 1778199037 | 11.67° C | 69% | 1030.8 hPa | - | - | - | - |
| 1778198502 | 11.67° C | 68% | 1030.7 hPa | - | - | - | - |
| 1778197968 | 12.22° C | 67% | 1030.7 hPa | - | - | - | - |
| 1778197433 | 12.22° C | 68% | 1030.7 hPa | - | - | - | - |
| 1778196899 | 12.22° C | 66% | 1030.7 hPa | - | - | - | - |
| 1778196365 | 12.22° C | 67% | 1030.9 hPa | - | - | - | - |
| 1778195831 | 12.22° C | 63% | 1031.1 hPa | - | - | - | - |
| 1778195297 | 12.22° C | 63% | 1030.9 hPa | - | - | - | - |
| 1778194762 | 12.22° C | 62% | 1030.5 hPa | - | - | - | - |
| 1778194228 | 12.22° C | 64% | 1030.9 hPa | - | - | - | - |
| 1778193694 | 12.78° C | 63% | 1030.8 hPa | - | - | - | - |
* Rain since midnight (hover to see other rain measurements)
** Current wind speed in m/s (hover to see current wind gust speed)